| time (UTC) | temp F | wind direction | speed MPH | gust MPH | rain 1hr in | rain 24hr in | rain mn in | humidity % | barometer mb |
| 20260831043031 | 53 | 169 | 2.0 | 5.0 | 0.00 | 0.00 | 0.00 | 76 | 1019.5 |
| 20260831041532 | 54 | 197 | 2.0 | 3.0 | 0.00 | 0.00 | 0.00 | 74 | 1019.5 |
| 20260831040028 | 55 | 208 | 2.0 | 3.0 | 0.00 | 0.00 | 0.00 | 71 | 1019.5 |
| 20260831034528 | 57 | 189 | 2.0 | 3.0 | 0.00 | 0.00 | 0.00 | 67 | 1019.4 |
| 20260831033030 | 59 | 134 | 1.0 | 3.0 | 0.00 | 0.00 | 0.00 | 62 | 1019.4 |
| 20260831031531 | 61 | 65 | 1.0 | 6.0 | 0.00 | 0.00 | 0.00 | 59 | 1019.3 |
| 20260831030029 | 61 | 348 | 1.0 | 7.0 | 0.00 | 0.00 | 0.00 | 58 | 1019.3 |
| 20260831023105 | 65 | 284 | 3.0 | 8.0 | 0.00 | 0.00 | 0.00 | 51 | 1019.2 |
| 20260831021604 | 66 | 271 | 4.0 | 10.0 | 0.00 | 0.00 | 0.00 | 50 | 1019.2 |
| 20260831004530 | 71 | 267 | 4.0 | 11.0 | 0.00 | 0.00 | 0.00 | 44 | 1019.3 |
| 20260831001604 | 71 | 323 | 3.0 | 9.0 | 0.00 | 0.00 | 0.00 | 44 | 1019.2 |
| 20260831000032 | 71 | 27 | 5.0 | 11.0 | 0.00 | 0.00 | 0.00 | 44 | 1019.2 |
| 20260830234603 | 71 | 350 | 5.0 | 13.0 | 0.00 | 0.00 | 0.00 | 46 | 1019.3 |
| 20260830233030 | 71 | 1 | 6.0 | 12.0 | 0.00 | 0.00 | 0.00 | 45 | 1019.4 |
| 20260830231605 | 72 | 353 | 6.0 | 11.0 | 0.00 | 0.00 | 0.00 | 43 | 1019.5 |
| 20260830230029 | 73 | 311 | 6.0 | 11.0 | 0.00 | 0.00 | 0.00 | 40 | 1019.6 |
| 20260830224607 | 73 | 300 | 5.0 | 11.0 | 0.00 | 0.00 | 0.00 | 41 | 1019.7 |
| 20260830223103 | 73 | 296 | 4.0 | 12.0 | 0.00 | 0.00 | 0.00 | 40 | 1020.0 |
| 20260830221530 | 72 | 308 | 5.0 | 10.0 | 0.00 | 0.00 | 0.00 | 42 | 1020.3 |
| 20260830220032 | 72 | 296 | 5.0 | 13.0 | 0.00 | 0.00 | 0.00 | 42 | 1020.5 |
| 20260830214636 | 71 | 301 | 6.0 | 13.0 | 0.00 | 0.00 | 0.00 | 45 | 1020.6 |
| 20260830213030 | 71 | 348 | 5.0 | 10.0 | 0.00 | 0.00 | 0.00 | 46 | 1020.8 |
| 20260830211526 | 71 | 10 | 5.0 | 11.0 | 0.00 | 0.00 | 0.00 | 47 | 1020.8 |
| 20260830210147 | 71 | 12 | 4.0 | 11.0 | 0.00 | 0.00 | 0.00 | 48 | 1020.8 |
| 20260830204532 | 70 | 21 | 5.0 | 10.0 | 0.00 | 0.00 | 0.00 | 49 | 1021.0 |
| 20260830201531 | 69 | 7 | 4.0 | 8.0 | 0.00 | 0.00 | 0.00 | 48 | 1021.3 |
| 20260830200031 | 70 | 348 | 2.0 | 9.0 | 0.00 | 0.00 | 0.00 | 46 | 1021.3 |
| 20260830194529 | 70 | 268 | 3.0 | 8.0 | 0.00 | 0.00 | 0.00 | 47 | 1021.5 |
| 20260830193107 | 69 | 80 | 3.0 | 7.0 | 0.00 | 0.00 | 0.00 | 48 | 1021.6 |
| 20260830191529 | 68 | 355 | 4.0 | 9.0 | 0.00 | 0.00 | 0.00 | 47 | 1021.7 |
| 20260830190031 | 67 | 20 | 3.0 | 8.0 | 0.00 | 0.00 | 0.00 | 48 | 1021.9 |
| 20260830181606 | 64 | 46 | 3.0 | 8.0 | 0.00 | 0.00 | 0.00 | 53 | 1022.3 |
| 20260830174648 | 62 | 343 | 1.0 | 5.0 | 0.00 | 0.00 | 0.00 | 55 | 1022.4 |
| 20260830173030 | 61 | 343 | 2.0 | 7.0 | 0.00 | 0.00 | 0.00 | 56 | 1022.4 |
| 20260830171529 | 60 | 340 | 0.0 | 3.0 | 0.00 | 0.00 | 0.00 | 58 | 1022.5 |
| 20260830164605 | 58 | 134 | 0.0 | 3.0 | 0.00 | 0.00 | 0.00 | 66 | 1022.9 |
| 20260830163105 | 56 | 109 | 1.0 | 5.0 | 0.00 | 0.00 | 0.00 | 69 | 1023.0 |
| 20260830161542 | 55 | 177 | 1.0 | 3.0 | 0.00 | 0.00 | 0.00 | 74 | 1023.2 |
| 20260830160105 | 53 | 163 | 1.0 | 3.0 | 0.00 | 0.00 | 0.00 | 80 | 1023.3 |
| 20260830154530 | 50 | 175 | 1.0 | 3.0 | 0.00 | 0.00 | 0.00 | 88 | 1023.3 |
| 20260830153029 | 47 | 135 | 0.0 | 4.0 | 0.00 | 0.00 | 0.00 | 91 | 1023.4 |
| 20260830151532 | 45 | 135 | 1.0 | 2.0 | 0.00 | 0.00 | 0.00 | 93 | 1023.3 |
| 20260830150030 | 43 | 185 | 0.0 | 3.0 | 0.00 | 0.00 | 0.00 | 93 | 1023.2 |
| 20260830144528 | 41 | 171 | 2.0 | 5.0 | 0.00 | 0.00 | 0.00 | 92 | 1023.1 |
| 20260830143032 | 40 | 146 | 2.0 | 4.0 | 0.00 | 0.00 | 0.00 | 91 | 1022.9 |
| 20260830141531 | 40 | 135 | 2.0 | 3.0 | 0.00 | 0.00 | 0.00 | 89 | 1022.8 |
| 20260830140034 | 41 | 150 | 1.0 | 2.0 | 0.00 | 0.00 | 0.00 | 88 | 1022.7 |
| 20260830134604 | 42 | 163 | 0.0 | 3.0 | 0.00 | 0.00 | 0.00 | 87 | 1022.7 |
| 20260830133105 | 43 | 175 | 3.0 | 7.0 | 0.00 | 0.00 | 0.00 | 88 | 1022.5 |
| 20260830131528 | 42 | 167 | 4.0 | 8.0 | 0.00 | 0.00 | 0.00 | 88 | 1022.3 |
| 20260830130028 | 42 | 179 | 4.0 | 7.0 | 0.00 | 0.00 | 0.00 | 86 | 1022.4 |
| 20260830123031 | 44 | 187 | 4.0 | 9.0 | 0.00 | 0.00 | 0.00 | 85 | 1022.5 |
| 20260830120109 | 44 | 156 | 4.0 | 7.0 | 0.00 | 0.00 | 0.00 | 85 | 1022.6 |
| 20260830114606 | 44 | 158 | 4.0 | 9.0 | 0.00 | 0.00 | 0.00 | 85 | 1022.6 |
| 20260830113032 | 45 | 163 | 3.0 | 7.0 | 0.00 | 0.00 | 0.00 | 85 | 1022.6 |
| 20260830111530 | 45 | 160 | 4.0 | 8.0 | 0.00 | 0.00 | 0.00 | 85 | 1022.7 |
| 20260830104535 | 45 | 160 | 4.0 | 8.0 | 0.00 | 0.00 | 0.00 | 86 | 1022.6 |
| 20260830103030 | 45 | 162 | 4.0 | 7.0 | 0.00 | 0.00 | 0.00 | 86 | 1022.6 |
| 20260830101531 | 45 | 160 | 4.0 | 6.0 | 0.00 | 0.00 | 0.00 | 87 | 1022.5 |
| 20260830100032 | 45 | 165 | 4.0 | 6.0 | 0.00 | 0.00 | 0.00 | 87 | 1022.6 |
| 20260830094533 | 45 | 164 | 4.0 | 8.0 | 0.00 | 0.00 | 0.00 | 87 | 1022.5 |
| 20260830093032 | 45 | 167 | 4.0 | 7.0 | 0.00 | 0.00 | 0.00 | 87 | 1022.5 |
| 20260830091644 | 44 | 177 | 5.0 | 8.0 | 0.00 | 0.00 | 0.00 | 89 | 1022.6 |
| 20260830090033 | 44 | 169 | 3.0 | 6.0 | 0.00 | 0.00 | 0.00 | 89 | 1022.6 |
| 20260830083029 | 46 | 175 | 3.0 | 6.0 | 0.00 | 0.00 | 0.00 | 88 | 1022.7 |
| 20260830081530 | 45 | 165 | 4.0 | 8.0 | 0.00 | 0.00 | 0.00 | 91 | 1022.6 |
| 20260830074527 | 44 | 180 | 3.0 | 5.0 | 0.00 | 0.00 | 0.00 | 91 | 1022.6 |
| 20260830073031 | 44 | 180 | 2.0 | 5.0 | 0.00 | 0.00 | 0.00 | 91 | 1022.5 |
| 20260830071529 | 45 | 137 | 2.0 | 3.0 | 0.00 | 0.00 | 0.00 | 90 | 1022.6 |
| 20260830070151 | 46 | 189 | 1.0 | 4.0 | 0.00 | 0.00 | 0.00 | 89 | 1022.6 |
| 20260830064530 | 46 | 207 | 1.0 | 4.0 | 0.00 | 0.00 | 0.00 | 89 | 1022.6 |
| 20260830060031 | 47 | 150 | 2.0 | 4.0 | 0.00 | 0.00 | 0.00 | 86 | 1022.8 |
| 20260830054527 | 48 | 162 | 2.0 | 4.0 | 0.00 | 0.00 | 0.00 | 85 | 1022.7 |
| 20260830053027 | 49 | 135 | 2.0 | 5.0 | 0.00 | 0.00 | 0.00 | 85 | 1022.8 |
| 20260830051526 | 49 | 156 | 2.0 | 5.0 | 0.00 | 0.00 | 0.00 | 85 | 1022.8 |
| 20260830050105 | 49 | 160 | 3.0 | 6.0 | 0.00 | 0.00 | 0.00 | 86 | 1022.8 |
| 20260830044530 | 48 | 153 | 3.0 | 5.0 | 0.00 | 0.00 | 0.00 | 86 | 1022.7 |